Location: Ku?niki
(51.4449°N, 17.8974°E)
Time: 03:30:16
(UTC+00:00)

CZ-2C R/B - Pass Details

Date: 18 September 2020
Orbit: 785 x 870 km, 98.2° (Epoch: 22 October)

Event Time Altitude Azimuth Distance (km) Brightness Sun altitude
Rises 17:34:46 0° 22° (NNE) 3,410 5.7 -7.0°
Reaches altitude 10° 17:37:30 10° 34° (NE) 2,483 4.9 -7.4°
Maximum altitude 17:42:09 27° 92° (E) 1,592 3.6 -8.1°
Drops below altitude 10° 17:46:49 10° 149° (SSE) 2,502 4.7 -8.8°
Sets 17:49:34 0° 161° (SSE) 3,441 5.5 -9.2°
